User: anonymous   Login
Location: Homewood
(41.1836°S, 175.9581°E)
Time: 12:16:20
(UTC+00:00)
Language:

Cosmos 1408 - Orbit

View from above orbital plane
View from above orbital plane
View from above satellite
View from above satellite

Ground track
Ground track

The orbit data is extracted from the following two-line orbital elements,

1 13552U 82092A   24167.71327732  .00055561  00000-0  54141-3 0  9999
2 13552  82.5555 243.7297 0010494 333.0261  27.0452 15.65950277145252
Epoch (UTC): 15 June 2024 17:07:07
Eccentricity: 0.0010494
inclination: 82.5555°
perigee height: 363 km
apogee height: 377 km
right ascension of ascending node: 243.7297°
argument of perigee: 333.0261°
revolutions per day: 15.65950277
mean anomaly at epoch: 27.0452°
orbit number at epoch: 14525

The dashed part of the orbit path shows where the satellite is in the earth's shadow,  

DLR